Marianna, FL

6:34 AM CDT on August 21, 2017 (GMT -0500)
Marianna Municipal

Weather History for KMAI - January, 2013

Change the Weather History Date:

Thursday, January 17, 2013

  Actual Average Record
Temperature  
Mean Temperature 54 °F 50 °F  
Max Temperature 65 °F 61 °F 79 °F (2017)
Min Temperature 42 °F 39 °F 23 °F (2009)
Degree Days  
Heating Degree Days 11    
Month to date heating degree days 109  
Since 1 July heating degree days 600  
Cooling Degree Days 0    
Month to date cooling degree days 46  
Year to date cooling degree days 46  
Growing Degree Days 3 (Base 50)    
Moisture  
Dew Point 43 °F    
Average Humidity 77    
Maximum Humidity 93    
Minimum Humidity 61    
Precipitation  
Precipitation 0.03 in 0.14 in 0.76 in (2012)
Month to date precipitation 0.51 2.57  
Year to date precipitation 0.51 2.57  
Sea Level Pressure  
Sea Level Pressure 30.05 in    
Wind  
Wind Speed 15 mph (West)    
Max Wind Speed 29 mph    
Max Gust Speed 37 mph    
Visibility 10 miles    
Events Rain    
T = Trace of Precipitation, MM = Missing Value Source: NWS Daily Summary

Daily Weather History Graph

Daily Weather History Graph

Search for Another Location

Airport or City:

Trip Planner

Search our weather history database for the weather conditions in past years. The results will help you decide how hot, cold, wet, or windy it might be!

Date:

Astronomy

Jan. 17, 2013 Rise Set
Actual Time 6:38 AM CST 5:03 PM CST
Civil Twilight 6:12 AM CST 5:29 PM CST
Nautical Twilight 5:43 AM CST 5:59 PM CST
Astronomical Twilight 5:14 AM CST 6:28 PM CST
Moon 10:14 AM CST (1/17) 11:22 PM CST (1/17)
Length of Visible Light 11h 16m
Length of Day
10h 24m
Waxing Crescent, 38% of the Moon is Illuminated
Jan 17
Waxing Crescent
Jan 18
First Quarter
Jan 26
Full
Feb 3
Last Quarter
Feb 10
New

Hourly Weather History & Observations

Time (CST) Temp. Windchill Dew Point Humidity Pressure Visibility Wind Dir Wind Speed Gust Speed Precip Events Conditions
1:09 AM 64.4 °F - 64.4 °F 100% 29.93 in 9.0 mi SSE 5.8 mph - 0.00 in Rain Light Rain
1:49 AM 64.4 °F - 62.6 °F 94% 29.93 in 10.0 mi SSW 6.9 mph - 0.01 in   Overcast
1:53 AM 64.9 °F - 63.0 °F 93% 29.93 in 10.0 mi SSW 8.1 mph - 0.01 in   Overcast
2:20 AM 64.4 °F - 62.6 °F 94% 29.93 in 10.0 mi SSW 9.2 mph - 0.00 in Rain Light Rain
2:44 AM 64.4 °F - 62.6 °F 94% 29.92 in 10.0 mi SW 13.8 mph - 0.01 in Rain Light Rain
3:03 AM 62.6 °F - 62.6 °F 100% 29.91 in 9.0 mi WSW 9.2 mph - 0.00 in Rain Light Rain
3:53 AM 57.9 °F - 55.9 °F 93% 29.94 in 10.0 mi WSW 17.3 mph 21.9 mph 0.01 in   Overcast
4:24 AM 53.6 °F - 51.8 °F 94% 29.96 in 10.0 mi WSW 15.0 mph 26.5 mph 0.00 in   Overcast
4:35 AM 53.6 °F - 51.8 °F 94% 29.96 in 10.0 mi WSW 9.2 mph - 0.00 in Rain Light Rain
4:53 AM 54.0 °F - 52.0 °F 93% 29.96 in 10.0 mi WSW 10.4 mph - 0.00 in   Overcast
5:09 AM 53.6 °F - 51.8 °F 94% 29.97 in 10.0 mi WSW 9.2 mph - N/A   Overcast
6:24 AM 51.8 °F - 46.4 °F 82% 29.98 in 10.0 mi West 12.7 mph 21.9 mph N/A   Overcast
6:53 AM 48.9 °F - 46.0 °F 90% 30.00 in 4.0 mi West 17.3 mph 27.6 mph 0.00 in Rain Light Rain
7:15 AM 48.2 °F - 44.6 °F 87% 30.01 in 9.0 mi West 15.0 mph 28.8 mph 0.00 in Rain Light Rain
7:28 AM 48.2 °F - 46.4 °F 93% 30.02 in 4.0 mi West 13.8 mph 21.9 mph 0.00 in Rain Light Rain
7:41 AM 46.4 °F 41.1 °F 44.6 °F 93% 30.03 in 6.0 mi West 11.5 mph 23.0 mph 0.00 in Rain Light Rain
7:53 AM 46.9 °F - 44.1 °F 90% 30.03 in 10.0 mi West 17.3 mph 21.9 mph 0.00 in   Overcast
8:34 AM 48.2 °F - 42.8 °F 82% 30.03 in 10.0 mi WSW 13.8 mph 28.8 mph N/A   Scattered Clouds
8:53 AM 48.9 °F - 42.1 °F 77% 30.04 in 10.0 mi WSW 17.3 mph 27.6 mph N/A   Partly Cloudy
9:13 AM 48.2 °F - 41.0 °F 76% 30.04 in 10.0 mi WSW 17.3 mph 25.3 mph N/A   Mostly Cloudy
9:53 AM 46.9 °F - 37.9 °F 71% 30.04 in 10.0 mi WSW 18.4 mph 29.9 mph N/A   Mostly Cloudy
11:53 AM 46.9 °F - 35.1 °F 63% 30.04 in 10.0 mi West 16.1 mph - N/A   Overcast
12:53 PM 48.9 °F - 35.1 °F 59% 30.03 in 10.0 mi West 21.9 mph 31.1 mph N/A   Overcast
1:53 PM 44.1 °F 36.8 °F 32.0 °F 63% 30.05 in 10.0 mi West 16.1 mph 31.1 mph N/A   Overcast
2:00 PM 44.6 °F 37.8 °F 32.0 °F 61% 30.05 in 10.0 mi West 15.0 mph 24.2 mph N/A   Overcast
2:32 PM 42.8 °F 35.1 °F 30.2 °F 61% 30.06 in 10.0 mi West 16.1 mph 27.6 mph N/A   Overcast
2:40 PM 42.8 °F 34.3 °F 32.0 °F 66% 30.07 in 10.0 mi West 19.6 mph 25.3 mph N/A   Overcast
2:53 PM 43.0 °F 34.8 °F 30.9 °F 62% 30.08 in 10.0 mi West 18.4 mph 23.0 mph N/A   Overcast
3:53 PM 42.1 °F 34.2 °F 30.9 °F 65% 30.10 in 10.0 mi WNW 16.1 mph 23.0 mph N/A   Overcast
4:53 PM 42.1 °F 34.9 °F 32.0 °F 67% 30.13 in 10.0 mi WNW 13.8 mph - N/A   Overcast
5:53 PM 43.0 °F 35.1 °F 33.1 °F 68% 30.17 in 10.0 mi WNW 17.3 mph 23.0 mph N/A   Overcast
6:53 PM 43.0 °F 35.4 °F 33.1 °F 68% 30.20 in 10.0 mi NW 16.1 mph 32.2 mph N/A   Overcast
7:53 PM 44.1 °F 36.8 °F 33.1 °F 65% 30.21 in 10.0 mi NNW 16.1 mph 29.9 mph N/A   Overcast
8:24 PM 42.8 °F 34.8 °F 33.8 °F 70% 30.21 in 10.0 mi NNW 17.3 mph 26.5 mph N/A   Overcast
8:53 PM 44.1 °F 37.4 °F 34.0 °F 68% 30.21 in 10.0 mi NNW 13.8 mph - N/A   Overcast
9:53 PM 44.1 °F 37.4 °F 34.0 °F 68% 30.22 in 10.0 mi NNW 13.8 mph 20.7 mph N/A   Overcast
10:14 PM 44.6 °F 38.1 °F 33.8 °F 66% 30.23 in 10.0 mi North 13.8 mph 20.7 mph N/A   Overcast
10:53 PM 44.1 °F 37.1 °F 34.0 °F 68% 30.24 in 10.0 mi North 15.0 mph 20.7 mph N/A   Overcast
11:53 PM 43.0 °F 36.4 °F 34.0 °F 71% 30.26 in 10.0 mi North 12.7 mph - N/A   Mostly Cloudy